Dyersburg, TN

2:43 AM CST on February 08, 2016 (GMT -0600)
Dyersburg Municipal

Weather History for KDYR - April, 2011

Change the Weather History Date:

Monday, April 18, 2011

  Actual Average Record
Temperature  
Mean Temperature 66 °F -  
Max Temperature 75 °F 68 °F 91 °F (2006)
Min Temperature 57 °F 50 °F 35 °F (1997)
Cooling Degree Days 1    
Growing Degree Days 16 (Base 50)    
Moisture  
Dew Point 50 °F    
Average Humidity 55    
Maximum Humidity 69    
Minimum Humidity 45    
Precipitation  
Precipitation 0.00 in - - ()
Sea Level Pressure  
Sea Level Pressure 29.85 in    
Wind  
Wind Speed 7 mph (South)    
Max Wind Speed 14 mph    
Max Gust Speed 20 mph    
Visibility 10 miles    
Events      
Averages and records for this station are not official NWS values.
T = Trace of Precipitation, MM = Missing Value Source: NWS Daily Summary

Daily Weather History Graph

Daily Weather History Graph

Search for Another Location

Airport or City:

Trip Planner

Search our weather history database for the weather conditions in past years. The results will help you decide how hot, cold, wet, or windy it might be!

Date:

Astronomy

Apr. 18, 2011 Rise Set
Actual Time 6:20 AM CDT 7:33 PM CDT
Civil Twilight 5:54 AM CDT 8:00 PM CDT
Nautical Twilight 5:22 AM CDT 8:31 PM CDT
Astronomical Twilight 4:49 AM CDT 9:05 PM CDT
Moon 8:42 PM CDT (4/18) 6:20 AM CDT (4/18)
Length of Visible Light 14h 05m
Length of Day
13h 12m
Waxing Gibbous, 99% of the Moon is Illuminated
Apr 18
Waxing Gibbous
Apr 24
Last Quarter
May 3
New
May 10
First Quarter
May 17
Full

Hourly Weather History & Observations

Time (CDT) Temp. Dew Point Humidity Pressure Visibility Wind Dir Wind Speed Gust Speed Precip Events Conditions
12:15 AM 60.8 °F 39.2 °F 45% 29.90 in 10.0 mi South 6.9 mph - N/A   Clear
12:35 AM 60.8 °F 39.2 °F 45% 29.89 in 10.0 mi South 5.8 mph - N/A   Partly Cloudy
12:55 AM 60.8 °F 39.2 °F 45% 29.89 in 10.0 mi South 5.8 mph - N/A   Partly Cloudy
1:15 AM 60.8 °F 39.2 °F 45% 29.87 in 10.0 mi South 8.1 mph - N/A   Clear
1:35 AM 59.0 °F 39.2 °F 48% 29.87 in 10.0 mi South 6.9 mph - N/A   Clear
1:55 AM 59.0 °F 39.2 °F 48% 29.87 in 10.0 mi South 6.9 mph - N/A   Clear
2:15 AM 57.2 °F 39.2 °F 51% 29.87 in 10.0 mi South 6.9 mph - N/A   Clear
2:55 AM 57.2 °F 39.2 °F 51% 29.86 in 10.0 mi South 6.9 mph - N/A   Scattered Clouds
3:15 AM 57.2 °F 39.2 °F 51% 29.87 in 10.0 mi South 5.8 mph - N/A   Partly Cloudy
3:35 AM 57.2 °F 39.2 °F 51% 29.87 in 10.0 mi South 4.6 mph - N/A   Mostly Cloudy
3:55 AM 57.2 °F 39.2 °F 51% 29.87 in 10.0 mi South 4.6 mph - N/A   Scattered Clouds
4:15 AM 57.2 °F 39.2 °F 51% 29.87 in 10.0 mi South 8.1 mph - N/A   Clear
4:35 AM 59.0 °F 39.2 °F 48% 29.86 in 10.0 mi South 6.9 mph - N/A   Clear
4:55 AM 57.2 °F 39.2 °F 51% 29.86 in 10.0 mi SSE 6.9 mph - N/A   Clear
5:15 AM 57.2 °F 39.2 °F 51% 29.86 in 10.0 mi South 6.9 mph - N/A   Clear
5:35 AM 57.2 °F 39.2 °F 51% 29.87 in 10.0 mi South 5.8 mph - N/A   Mostly Cloudy
5:55 AM 57.2 °F 39.2 °F 51% 29.86 in 10.0 mi South 8.1 mph - N/A   Mostly Cloudy
6:15 AM 57.2 °F 39.2 °F 51% 29.87 in 10.0 mi South 5.8 mph - N/A   Clear
6:35 AM 57.2 °F 39.2 °F 51% 29.88 in 10.0 mi South 5.8 mph - N/A   Clear
6:55 AM 57.2 °F 39.2 °F 51% 29.88 in 10.0 mi SSE 5.8 mph - N/A   Clear
7:15 AM 57.2 °F 39.2 °F 51% 29.88 in 10.0 mi South 5.8 mph - N/A   Clear
7:35 AM 59.0 °F 39.2 °F 48% 29.88 in 10.0 mi South 6.9 mph - N/A   Clear
7:55 AM 59.0 °F 41.0 °F 51% 29.88 in 10.0 mi South 6.9 mph - N/A   Clear
8:15 AM 60.8 °F 42.8 °F 52% 29.89 in 10.0 mi South 6.9 mph - N/A   Mostly Cloudy
8:35 AM 62.6 °F 42.8 °F 48% 29.90 in 10.0 mi South 8.1 mph - N/A   Overcast
9:15 AM 64.4 °F 46.4 °F 52% 29.88 in 10.0 mi South 4.6 mph - N/A   Mostly Cloudy
9:35 AM 66.2 °F 48.2 °F 52% 29.89 in 10.0 mi South 8.1 mph - N/A   Partly Cloudy
9:55 AM 66.2 °F 48.2 °F 52% 29.88 in 10.0 mi South 10.4 mph 17.3 mph N/A   Clear
10:15 AM 69.8 °F 51.8 °F 53% 29.89 in 10.0 mi SSW 5.8 mph - N/A   Clear
10:35 AM 69.8 °F 51.8 °F 53% 29.89 in 10.0 mi South 9.2 mph 16.1 mph N/A   Clear
10:55 AM 71.6 °F 53.6 °F 53% 29.88 in 10.0 mi South 9.2 mph - N/A   Clear
11:15 AM 71.6 °F 53.6 °F 53% 29.89 in 10.0 mi South 8.1 mph - N/A   Scattered Clouds
11:35 AM 73.4 °F 55.4 °F 53% 29.89 in 10.0 mi South 6.9 mph - N/A   Overcast
11:55 AM 73.4 °F 55.4 °F 53% 29.88 in 10.0 mi WSW 6.9 mph - N/A   Overcast
12:15 PM 75.2 °F 57.2 °F 53% 29.88 in 10.0 mi SW 11.5 mph 18.4 mph N/A   Overcast
12:55 PM 73.4 °F 57.2 °F 57% 29.86 in 10.0 mi SW 13.8 mph - N/A   Overcast
1:15 PM 73.4 °F 57.2 °F 57% 29.85 in 10.0 mi SSW 5.8 mph - N/A   Overcast
1:35 PM 75.2 °F 57.2 °F 53% 29.85 in 10.0 mi SW 9.2 mph - N/A   Overcast
1:55 PM 75.2 °F 57.2 °F 53% 29.84 in 10.0 mi SSW 10.4 mph 16.1 mph N/A   Overcast
2:15 PM 75.2 °F 57.2 °F 53% 29.84 in 10.0 mi SSW 10.4 mph 17.3 mph N/A   Overcast
2:35 PM 75.2 °F 59.0 °F 57% 29.83 in 10.0 mi SW 10.4 mph 19.6 mph N/A   Overcast
2:55 PM 75.2 °F 57.2 °F 53% 29.83 in 10.0 mi SW 8.1 mph - N/A   Overcast
3:15 PM 75.2 °F 59.0 °F 57% 29.82 in 10.0 mi South 5.8 mph - N/A   Overcast
3:35 PM 75.2 °F 59.0 °F 57% 29.81 in 10.0 mi South 10.4 mph 16.1 mph N/A   Overcast
3:55 PM 73.4 °F 59.0 °F 61% 29.80 in 10.0 mi South 11.5 mph 16.1 mph N/A   Overcast
5:15 PM 73.4 °F 57.2 °F 57% 29.79 in 10.0 mi South 5.8 mph - N/A   Overcast
5:35 PM 73.4 °F 57.2 °F 57% 29.79 in 10.0 mi South 5.8 mph - N/A   Overcast
5:55 PM 71.6 °F 57.2 °F 60% 29.78 in 10.0 mi South 6.9 mph - N/A   Overcast
6:15 PM 71.6 °F 59.0 °F 64% 29.78 in 10.0 mi SSE 5.8 mph - N/A   Overcast
6:35 PM 71.6 °F 59.0 °F 64% 29.78 in 10.0 mi SSE 5.8 mph - N/A   Overcast
6:55 PM 71.6 °F 59.0 °F 64% 29.76 in 10.0 mi SSE 6.9 mph - N/A   Overcast
7:15 PM 71.6 °F 59.0 °F 64% 29.76 in 10.0 mi SE 6.9 mph - N/A   Overcast
7:35 PM 71.6 °F 59.0 °F 64% 29.77 in 5.0 mi SE 4.6 mph - N/A   Overcast
7:55 PM 71.6 °F 59.0 °F 64% 29.77 in 10.0 mi SE 5.8 mph - N/A   Overcast
8:15 PM 71.6 °F 59.0 °F 64% 29.77 in 10.0 mi SE 5.8 mph - N/A   Overcast
8:35 PM 71.6 °F 59.0 °F 64% 29.78 in 10.0 mi SE 4.6 mph - N/A   Overcast
8:55 PM 71.6 °F 59.0 °F 64% 29.79 in 10.0 mi SE 4.6 mph - N/A   Overcast
9:15 PM 71.6 °F 60.8 °F 69% 29.80 in 10.0 mi SE 6.9 mph - N/A   Overcast
9:55 PM 71.6 °F 60.8 °F 69% 29.81 in 10.0 mi SSE 6.9 mph - N/A   Overcast
10:15 PM 73.4 °F 60.8 °F 65% 29.81 in 10.0 mi South 5.8 mph - N/A   Mostly Cloudy
10:35 PM 73.4 °F 60.8 °F 65% 29.80 in 10.0 mi South 6.9 mph - N/A   Overcast
10:55 PM 73.4 °F 60.8 °F 65% 29.80 in 10.0 mi South 10.4 mph 16.1 mph N/A   Overcast
11:15 PM 73.4 °F 60.8 °F 65% 29.79 in 10.0 mi SSE 10.4 mph - N/A   Overcast
11:35 PM 73.4 °F 60.8 °F 65% 29.80 in 10.0 mi SSE 8.1 mph - N/A   Overcast
11:55 PM 73.4 °F 60.8 °F 65% 29.80 in 10.0 mi South 8.1 mph - N/A   Overcast